Location: Orange Harbor Mobile Home Park
(26.6923°N, 81.7937°W)
Time: 08:17:46
(UTC+00:00)

H-2A R/B - Pass Details

Date: 19 September 2020
Orbit: 734 x 836 km, 98.2° (Epoch: 29 October)

Event Time Altitude Azimuth Distance (km) Brightness Sun altitude
Exits shadow 00:10:40 - 146° (SSE) 3,120 4.8 -10.4°
Reaches altitude 10° 00:13:01 10° 138° (SE) 2,231 4.0 -11.0°
Maximum altitude 00:17:26 35° 73° (ENE) 1,181 2.5 -11.9°
Drops below altitude 10° 00:21:56 10° 8° (N) 2,271 4.5 -12.9°
Sets 00:24:24 0° 0° (N) 3,211 5.3 -13.5°
